Regional Weather Roundup
Issued by NWS

Home | Current Version | Previous Version | Graphics & Text | Print | Product List | Glossary On
Versions: 1 2 3 4 5 6 7 8 9 10 11 12 13 14 15 16 17 18 19 20 21 22 23 24 25 26 27 28 29 30 31 32 33 34 35 36 37 38 39 40 41 42 43 44 45 46 47 48 49 50
000
ASUS43 KIND 111409
RWRIN

WEATHER ROUNDUP FOR INDIANA
NATIONAL WEATHER SERVICE INDIANAPOLIS IN
900 AM EST THU FEB 11 2016

NOTE: "FAIR" INDICATES FEW OR NO CLOUDS BELOW 12,000 FEET WITH NO
SIGNIFICANT WEATHER AND/OR OBSTRUCTIONS TO VISIBILITY.

* - STATION DOES NOT REPORT WEATHER SUCH AS PRECIPITATION OR FOG.

+ - STATION NOT QUALITY CONTROLLED BY THE NATIONAL WEATHER SERVICE.
    USE DATA WITH CAUTION...ESPECIALLY DEWPOINT AND RELATIVE
    HUMIDITY OBSERVATIONS.

INZ001>003-010>013-019-020-111500-
NORTHWEST INDIANA

CITY           SKY/WX    TMP DP  RH WIND       PRES   REMARKS
GARY /AIRPORT/ MOSUNNY   14   0  52 W12       30.29R WCI   0
KNOX *+        CLOUDY    14   7  73 W9        30.25R WCI   2
LA PORTE +     LGT SNOW  19  10  68 NW6       30.24R WCI  11
MICHIGAN CITY+ CLOUDY    19   9  63 NW8       30.25R WCI   9
MONTICELLO +   SUNNY     10   1  65 W6        30.27R WCI   1
RENSSELAER +   SUNNY     12   1  62 NW8       30.28R WCI   1
VALPARAISO     CLOUDY    13   6  74 W10       30.26R WCI   0

$$

LMZ046-743>745-111500-
SOUTHERN LAKE MICHIGAN

STATION/POSITION TIME  TEMP    WIND        PRES    WAVE
                       AIR SEA DIR/SP/G            HT
                 (UTC) (F)     (DEG/KT/KT) (MB)    (FT)
MICHIGAN CITY    1300   18     300/ 19/ 23   N/A

$$

INZ004-005-014>016-021>024-111500-
NORTH CENTRAL INDIANA

CITY           SKY/WX    TMP DP  RH WIND       PRES   REMARKS
ELKHART        LGT SNOW  16  10  79 CALM      30.23R
GOSHEN         LGT SNOW  14  10  84 W5        30.22R FOG     WCI   6
LOGANSPORT +   SUNNY     12   1  62 W6        30.27R WCI   3
PERU/GRISSOM   SUNNY     10   4  77 W10       30.23R WCI  -4
ROCHESTER +    CLOUDY    14   3  62 W5        30.24R WCI   6
SOUTH BEND     CLOUDY    16   8  71 NW8       30.23R HAZE    WCI   5
WARSAW +       LGT SNOW  16  12  86 N3        30.23R

$$

INZ006>009-017-018-025>027-111500-
NORTHEAST INDIANA

CITY           SKY/WX    TMP DP  RH WIND       PRES   REMARKS
ANGOLA *+      CLOUDY    14   9  79 W3        30.18R
AUBURN +       FLURRIES  16  10  79 W3        30.22R
FORT WAYNE     LGT SNOW  17   8  67 W8        30.23R WCI   7
HUNTINGTON +   CLOUDY    10   1  67 W5        30.23R WCI   2

$$

INZ028-029-035-036-043>045-051>053-111500-
WEST CENTRAL INDIANA

CITY           SKY/WX    TMP DP  RH WIND       PRES   REMARKS
GREENCASTLE +  SUNNY     12   3  67 N6        30.28R WCI   3
LAFAYETTE      SUNNY     12   3  67 N10       30.29R WCI  -1
TERRE HAUTE    SUNNY     14   7  73 N6        30.31R WCI   5

$$

INZ030>032-037>040-046>048-054>057-064-065-111500-
CENTRAL INDIANA

CITY           SKY/WX    TMP DP  RH WIND       PRES   REMARKS
ANDERSON       SUNNY     10   5  79 CALM      30.25
COLUMBUS       SUNNY     16  10  79 CALM      30.29R
FRANKFORT +    MOSUNNY   11   1  62 NW5       30.27R WCI   3
GREENWOOD *+   SUNNY     14  10  85 CALM      30.27R
INDIANAPOLIS   MOSUNNY   14   6  70 NW7       30.26R WCI   4
-EAGLE CREEK   SUNNY     13   6  74 NW6       30.26R WCI   4
KOKOMO *+      PTSUNNY   10   1  67 W9        30.25R WCI  -2
MARION +       CLOUDY     9   0  64 W6        30.25R WCI   0
MT COMFORT *+  SUNNY     12   5  73 NW5       30.26R WCI   4
SHELBYVILLE    SUNNY     14   6  70 NW5       30.26R WCI   6
ZIONSVILLE +   MOSUNNY   10   5  79 NW5       30.26R WCI   2

$$

INZ033-034-041-042-049-050-058-059-111500-
EAST CENTRAL INDIANA

CITY           SKY/WX    TMP DP  RH WIND       PRES   REMARKS
MUNCIE         MOSUNNY   11   4  73 W7        30.23R WCI   0

$$

INZ060-061-067>069-081>083-085>088-111500-
SOUTHWEST INDIANA

CITY           SKY/WX    TMP DP  RH WIND       PRES   REMARKS
EVANSVILLE     CLOUDY    24  16  71 NE7       30.30R WCI  16
HUNTINGBURG *+ CLOUDY    21  12  68 N7        30.30R WCI  13
WASHINGTON +   CLOUDY    19  10  69 CALM      30.31R

$$

INZ062-063-066-070>080-084-089>092-111500-
SOUTH CENTRAL AND SOUTHEAST INDIANA

CITY           SKY/WX    TMP DP  RH WIND       PRES   REMARKS
BEDFORD +      SUNNY     16  12  86 N3        30.28R
BLOOMINGTON    SUNNY      9   5  84 CALM      30.27R
MADISON *+     SUNNY     14  10  85 CALM      30.28R
NORTH VERNON + SUNNY      9   7  92 CALM      30.28R
SEYMOUR +      SUNNY     19  10  68 CALM      30.29R

$$




USA.gov is the U.S. government's official web portal to all federal, state and local government web resources and services.